OPS 4682 DEB, 1316

Orbit data source: Space-Track

OPS 4682 DEB, 1316 is space debris in LEO originally from a launch on Sat, 03 Apr 1965 UTC launched from the Air Force Western Test Range (AFWTR). Debris objects in space refer to the collection of defunct objects orbiting the Earth. Examples of debris include non-operational satellites, rocket bodies, and fragments generated from explosions, collisions, or faulty payload assembly.

Loading next visibility...
Identifier
1316, 1965-027C
Orbit
LEO
Country
Flag of USUS
Related business
Manufacturer
Unknown
Mission
Spacecraft
Bus & Motor
Unknown
Mass
7 kg wet, 7 kg dry
Launch date (UTC)
1965-04-03 (61 years ago)
Launch vehicle
Unknown
Launch site
Air Force Western Test Range (AFWTR)
Object type
Payload
Rocket body
Debris
Shape & HBR
Unknown
Radar Cross Section
Medium (>0.1 m² and <1 m²)

Expand to show TLE details & history
Last TLE update: 8 hours ago

TLE from 8 hours ago
0 OPS 4682 DEB
1 01316U 65027C   25352.57253327  .00000507  00000-0  11978-2 0  9992
2 01316  90.2566  23.0163 0031522 318.5251  41.3491 13.22223161895135
Epoch: 2025-12-18T13:44Z
TLE epoch observation values (Epoch: 2025-12-18T13:44:26.874Z)
Latitude
-0.00011°
Longitude
89.47821°
Altitude
1,161.306 km
Speed
7.281 km/s
True Right ascension
01h 32m 03s
True Declination
0° 00' 00"
Sunlit
Object was in daylight at epoch
Visualization orbit readout
Latitude
Unknown
Longitude
Unknown
Altitude
Unknown
Speed
Unknown
Apparent Right ascension
Unknown
Apparent Declination
Unknown
Sunlit
N/A
Visualization observer readout
Local Sidereal Time
21:02:30
Azimuth
Unknown
Elevation
Unknown
Doppler factor
Unknown
Orbital elements
Apogee altitude
1,197.135 km
Perigee altitude
1,149.527 km
Semi-major axis
7,551.468 km
Eccentricity
0.00315
Inclination
90.2566°
RAAN
23.0163°
Arg. of periapsis
318.5251°
True anomaly
41.58844°
Mean anomaly
41.3491°
Eccentric anomaly
41.4687°
Mean motion
3.30747 °/min
Orbital period
108.84 mins
BSTAR
0.0011978
Loading maneuver chart data...
Computing Atmospheric mass density...
Loading historical data...
Loading historical data...
Loading historical data...
Loading historical data...
Loading historical data...
Loading historical data...
Loading historical data...

Documentation

Showing up to 5 results
|